Location: Mentone
(34.5413°N, 85.5351°W)
Time: 10:38:53
(UTC-06:00)

Transit 2A Rocket - Visible Passes

Search period start: 01 March 2015 00:00
Search period end: 11 March 2015 01:00
Orbit: 585 x 922 km, 66.7° (Epoch: 28 February)

Date Brightness Start Highest point End Pass type
(mag) Time Alt. Az. Time Alt. Az. Time Alt. Az.
01 Mar 5.8 18:07:52 10° NNW 18:13:30 39° NE 18:18:51 10° SE visible
01 Mar 7.0 19:50:57 10° NW 19:56:02 29° WSW 20:00:44 10° SSW visible
02 Mar 6.1 19:08:25 10° NW 19:14:14 50° WSW 19:19:36 10° S visible
03 Mar 5.3 18:26:14 10° NNW 18:32:18 87° WSW 18:37:57 10° SSE visible
04 Mar 7.8 19:28:23 10° WNW 19:32:28 19° WSW 19:36:08 10° SW visible
05 Mar 7.0 18:45:24 10° NW 18:50:42 33° WSW 18:55:36 10° S visible
06 Mar 6.0 18:02:58 10° NW 18:08:52 58° WSW 18:14:19 10° S visible
07 Mar 8.4 19:06:46 10° W 19:08:51 12° WSW 19:10:29 10° WSW visible
08 Mar 7.9 19:22:40 10° WNW 19:27:08 22° WSW 19:31:11 10° SSW visible
